Wetbulb
69.32 72.23 74.97 74.77 74.02 73.44 73.11 71.60 71.30 70.99 70.66 70.20 68.83 68.24 68.10 68.36 67.92 66.63 66.28 66.10 65.93 65.61 65.40 65.54 65.93 65.84 65.91 66.00 65.83 66.28 66.80 67.34 66.99 68.81 71.18 72.32 73.61 74.97 74.90 74.35 75.46 74.28 75.94
69.84 72.46 74.72 74.27 73.74 73.64 72.88 72.33 71.92 71.57 71.25 70.61 69.63 68.76 68.01 67.59 67.17 66.99 66.67 66.40 66.18 65.88 66.17 66.47 66.87 66.87 66.60 66.44 66.56 66.60 66.71 68.44 67.98 67.35 67.74 69.27 71.17 73.81 73.78 73.46 74.69 74.07 75.52
70.02 71.81 73.02 74.02 73.67 73.54 72.99 72.65 72.10 71.68 71.38 71.10 70.47 69.63 68.88 68.62 67.68 67.38 67.33 66.90 66.88 66.91 67.28 67.41 67.76 68.16 68.22 67.76 67.39 67.30 67.87 69.31 69.38 67.79 67.87 64.77 65.64 70.14 73.88 73.95 73.96 74.73 75.07
69.89 70.94 71.39 74.02 73.49 73.44 73.07 72.72 72.16 71.93 71.78 71.41 70.94 69.63 68.83 69.08 68.65 67.81 67.57 67.25 67.52 67.89 68.21 68.27 68.52 69.13 69.83 69.72 69.15 68.70 68.73 69.07 69.82 68.30 65.88 65.83 64.90 69.44 74.87 74.01 74.18 73.94 73.97
69.70 70.14 70.88 73.95 73.65 73.56 73.22 72.83 72.41 72.16 72.06 71.96 71.03 70.52 69.88 69.64 70.06 69.99 68.73 68.59 68.55 68.83 69.36 69.57 69.42 69.61 69.85 71.18 70.72 70.77 70.11 68.92 68.51 68.06 65.24 63.60 61.83 67.35 74.67 73.97 74.18 74.09 73.55
70.03 69.40 72.80 73.67 73.57 73.45 73.39 73.15 72.90 72.58 72.48 72.28 71.83 71.11 70.68 70.44 71.17 70.93 69.89 69.42 69.19 69.30 69.54 70.31 70.85 71.20 70.88 71.02 70.47 70.72 70.34 69.76 69.39 66.07 64.91 64.89 65.44 73.53 73.86 73.74 73.86 73.74 73.42
69.38 68.95 71.86 73.82 74.02 73.80 73.77 73.57 73.07 72.85 72.55 72.65 72.58 72.03 71.61 72.01 71.86 71.62 70.57 70.31 70.23 70.67 71.04 71.11 71.24 70.99 70.58 70.44 70.58 70.87 70.26 70.20 68.45 66.63 66.06 66.52 65.85 72.58 74.03 73.33 73.31 73.70 73.67
69.30 69.46 70.99 73.47 74.06 73.81 73.75 73.60 73.02 72.87 72.77 72.70 72.72 72.58 72.43 72.33 72.25 71.67 71.25 71.02 71.27 71.34 71.19 70.79 70.70 70.68 70.68 70.02 70.44 70.71 70.97 69.74 67.78 66.13 66.59 66.54 70.60 72.60 72.82 73.10 73.10 73.17 73.42
70.46 70.41 70.82 71.18 72.73 74.26 73.71 73.29 73.19 72.76 72.61 72.63 72.29 72.22 72.52 72.67 72.51 72.31 72.29 72.32 71.71 71.15 70.46 70.12 69.58 69.38 70.14 69.90 69.95 70.53 70.51 69.53 66.19 64.93 65.08 65.37 71.26 71.75 70.94 71.37 72.08 72.56 72.70
70.05 71.04 70.43 70.56 70.30 71.09 71.77 73.90 73.44 73.10 72.92 72.69 72.67 72.53 72.62 72.73 72.68 72.53 71.77 72.04 71.07 70.36 69.72 69.50 68.35 68.21 68.55 69.96 70.27 70.43 69.67 69.59 66.21 65.62 64.73 64.18 71.49 71.51 70.21 70.54 71.33 72.18 72.26
68.63 70.87 70.60 70.24 70.04 69.73 70.18 72.52 73.43 73.84 73.31 73.05 72.90 72.83 72.01 69.53 69.21 69.66 70.91 71.40 70.94 70.24 69.77 68.97 68.29 67.53 67.68 68.31 69.02 69.58 69.63 65.73 65.53 65.35 64.83 67.40 71.41 71.44 70.26 71.03 70.98 71.84 71.79
58.18 69.78 70.69 70.51 70.14 69.58 69.89 70.09 71.30 71.66 71.62 71.71 71.35 70.89 69.87 67.86 65.14 67.39 69.31 72.16 70.61 70.90 70.21 68.82 67.85 67.29 67.15 64.49 64.86 68.09 66.53 65.83 65.10 63.79 64.03 68.97 70.77 71.20 70.39 70.31 70.58 71.19 71.56
58.36 65.00 70.44 70.49 70.59 70.06 69.46 69.51 70.54 70.37 70.89 71.17 69.97 68.87 68.61 67.24 66.04 66.78 65.27 67.61 65.96 69.16 64.64 65.89 64.85 64.77 64.75 64.41 63.74 63.95 66.33 65.48 65.23 64.51 64.94 69.23 70.47 71.40 70.31 69.96 69.82 70.22 71.37
58.44 58.52 69.88 70.74 70.43 69.86 69.29 68.89 69.58 69.20 69.47 69.57 69.35 67.83 67.84 66.79 66.29 65.03 64.85 65.07 64.27 63.68 62.95 63.13 63.30 63.39 64.25 64.97 64.55 64.48 66.14 65.06 65.75 65.05 63.50 70.32 70.25 71.08 70.20 69.69 69.61 69.73 71.00
58.35 60.49 66.74 70.27 70.50 69.95 67.78 69.16 69.42 68.75 68.93 68.71 68.61 68.10 67.11 66.77 64.59 64.32 63.91 64.39 64.34 64.19 63.94 64.01 63.14 63.90 64.52 63.44 62.83 63.06 63.55 64.27 65.52 64.46 65.06 70.02 69.68 69.74 69.90 69.77 69.58 69.76 69.57
58.99 59.85 64.54 68.34 70.02 69.48 68.22 68.92 69.33 69.24 68.85 68.46 68.31 68.28 67.49 66.11 64.31 64.92 65.45 65.07 63.90 64.58 63.90 63.50 63.34 63.28 62.15 62.22 62.99 63.27 62.97 63.14 63.86 63.62 66.07 66.70 69.14 68.97 69.58 69.35 69.45 69.68 69.60
60.80 60.89 65.36 66.43 68.07 68.65 68.30 67.09 69.02 69.32 69.06 68.28 67.10 68.05 68.00 66.26 65.08 65.69 64.65 64.01 64.77 64.52 63.88 63.33 63.24 63.10 62.42 62.34 63.66 62.48 62.65 64.11 63.70 63.60 64.81 64.17 65.54 68.76 68.94 68.82 69.88 69.61 69.95
60.85 61.55 64.28 68.86 68.14 68.40 67.76 68.30 68.04 68.77 68.24 67.62 66.90 68.24 67.90 66.37 66.18 65.51 64.30 63.77 65.26 64.98 64.49 63.07 62.14 62.03 61.58 61.13 61.36 61.68 61.62 61.71 63.47 63.49 63.14 63.60 63.35 64.28 67.68 68.59 69.26 69.90 69.98
61.75 60.80 64.74 67.00 68.31 68.41 67.83 67.48 68.55 67.81 66.64 66.20 65.36 65.73 67.68 67.49 67.42 65.04 64.32 63.59 65.15 64.48 63.82 63.19 62.89 61.93 60.71 60.81 60.96 61.03 60.95 61.42 62.14 62.86 62.13 63.15 62.01 63.33 64.18 67.69 68.25 69.41 70.18
60.12 63.22 64.07 64.96 68.89 69.24 69.83 68.13 68.22 68.15 65.85 65.78 64.87 64.94 66.32 66.97 67.06 65.62 64.80 64.22 64.56 63.56 63.21 62.57 61.50 61.57 60.83 60.49 62.13 62.11 61.12 61.42 62.57 61.86 62.80 62.90 61.64 62.88 64.25 64.14 64.66 66.45 69.64
59.97 62.29 63.89 66.29 69.01 70.18 69.31 68.27 66.77 65.98 64.62 64.54 65.08 66.25 66.54 66.48 66.31 64.94 64.08 64.17 63.80 62.40 61.77 61.40 60.86 60.21 59.07 59.85 57.80 57.64 58.96 60.52 60.50 60.46 60.67 61.17 62.62 62.10 62.18 63.84 64.40 64.93 65.71
59.84 64.38 66.59 68.65 69.76 69.67 69.55 68.17 66.83 65.41 64.14 64.15 65.12 64.66 65.58 64.97 64.83 65.11 63.93 63.88 62.34 61.55 61.22 60.46 59.98 58.44 58.40 58.67 56.06 57.32 55.20 56.54 58.62 60.35 60.10 60.56 60.20 60.83 62.23 64.21 64.14 64.12 63.84
65.03 66.25 68.09 69.66 69.15 68.40 69.07 68.69 66.44 64.21 63.88 63.14 63.24 63.97 64.47 65.30 64.79 64.03 63.06 62.65 62.00 61.62 60.11 59.61 59.75 58.49 55.80 57.40 57.82 55.74 54.42 52.61 53.92 57.08 59.40 61.04 59.53 61.18 61.56 62.28 64.52 65.49 65.63
65.07 66.53 66.63 68.52 68.66 68.84 68.56 66.83 64.87 62.41 61.09 61.89 61.65 63.20 64.45 64.33 64.17 63.67 63.09 62.40 61.68 60.70 59.84 59.75 60.67 58.56 57.50 55.50 57.24 59.66 58.79 58.39 53.34 51.69 56.56 58.46 60.35 59.66 60.51 61.30 61.81 64.27 64.45
65.01 64.89 65.85 67.99 67.51 68.23 67.02 65.01 62.66 61.87 62.33 62.65 62.45 61.78 62.17 62.15 62.97 63.25 62.70 62.03 61.07 60.75 60.04 59.99 59.37 58.91 58.40 56.86 56.28 56.34 57.36 58.49 58.26 55.70 51.21 54.59 58.45 61.37 60.81 61.05 61.12 62.56 65.69
65.34 66.14 67.11 66.78 66.12 65.86 65.45 63.68 62.35 62.39 61.65 61.35 60.75 61.12 61.81 61.51 61.45 61.52 62.16 61.25 60.80 60.47 60.48 60.45 59.65 59.17 59.76 58.72 57.52 57.22 55.90 55.29 56.46 55.17 52.69 53.28 55.07 56.96 59.31 60.80 60.59 61.68 64.46
MSLP
1008.14 1008.03 1008.29 1008.70 1009.04 1009.49 1009.91 1010.49 1010.85 1011.31 1011.78 1012.13 1012.55 1012.85 1013.21 1013.46 1013.68 1013.86 1014.05 1014.26 1014.38 1014.35 1014.62 1014.83 1014.73 1014.70 1014.78 1014.86 1014.95 1014.99 1014.94 1014.92 1015.00 1015.04 1015.01 1014.93 1014.71 1014.71 1014.80 1014.76 1014.99 1015.07 1015.28
1006.66 1007.73 1008.04 1008.51 1008.95 1009.42 1009.87 1010.35 1010.80 1011.34 1011.55 1011.95 1012.48 1012.77 1013.11 1013.45 1013.71 1013.97 1014.13 1014.37 1014.59 1014.57 1014.51 1014.78 1014.95 1014.82 1014.76 1014.79 1014.88 1014.96 1014.91 1014.91 1014.97 1014.98 1014.99 1014.96 1014.87 1014.75 1014.80 1014.94 1014.95 1015.14 1015.35
1006.61 1007.42 1007.99 1008.38 1008.88 1009.25 1009.78 1010.25 1010.74 1011.21 1011.48 1011.88 1012.36 1012.71 1013.00 1013.32 1013.56 1013.90 1014.15 1014.36 1014.55 1014.60 1014.49 1014.66 1014.78 1014.87 1014.78 1014.71 1014.77 1014.81 1014.86 1014.97 1015.01 1015.00 1014.87 1014.93 1014.77 1014.78 1014.68 1014.89 1014.92 1015.12 1015.39
1006.53 1007.45 1007.99 1008.48 1009.01 1009.36 1009.66 1010.16 1010.68 1011.10 1011.45 1011.89 1012.26 1012.57 1012.88 1013.22 1013.46 1013.73 1014.05 1014.24 1014.41 1014.55 1014.51 1014.53 1014.64 1014.69 1014.67 1014.67 1014.66 1014.76 1014.83 1014.92 1014.89 1014.88 1014.87 1014.77 1014.75 1014.54 1014.50 1014.72 1014.97 1015.13 1015.35
1007.18 1008.06 1008.62 1009.04 1009.33 1009.67 1009.73 1010.11 1010.59 1011.02 1011.41 1011.81 1012.11 1012.48 1012.89 1013.16 1013.34 1013.60 1013.94 1014.06 1014.23 1014.34 1014.40 1014.42 1014.48 1014.47 1014.46 1014.57 1014.60 1014.64 1014.72 1014.85 1014.91 1014.81 1014.69 1014.65 1014.80 1014.21 1014.06 1014.48 1014.94 1015.08 1015.45
1006.80 1007.44 1008.25 1009.00 1009.37 1009.66 1009.90 1010.16 1010.53 1010.96 1011.40 1011.74 1012.00 1012.30 1012.79 1013.01 1013.19 1013.39 1013.77 1013.98 1014.09 1014.08 1014.09 1014.15 1014.21 1014.29 1014.33 1014.38 1014.49 1014.52 1014.55 1014.60 1014.70 1014.74 1014.57 1014.42 1014.55 1013.94 1014.08 1014.46 1014.91 1015.17 1015.31
1006.05 1006.39 1007.02 1007.86 1008.66 1009.30 1009.67 1009.95 1010.43 1010.79 1011.20 1011.47 1011.72 1011.99 1012.42 1012.77 1012.96 1013.15 1013.41 1013.68 1013.86 1013.86 1013.84 1013.91 1014.01 1014.14 1014.24 1014.27 1014.31 1014.32 1014.31 1014.44 1014.51 1014.52 1014.39 1014.34 1014.13 1013.86 1014.10 1014.44 1014.78 1015.13 1015.30
1005.04 1005.85 1006.32 1006.90 1007.71 1008.27 1009.00 1009.70 1010.17 1010.52 1010.86 1011.17 1011.39 1011.58 1011.99 1012.36 1012.59 1012.79 1013.05 1013.26 1013.40 1013.50 1013.60 1013.71 1013.82 1013.88 1013.96 1014.00 1013.98 1014.06 1014.10 1014.20 1014.16 1014.24 1014.17 1014.25 1013.84 1013.94 1013.92 1014.21 1014.59 1014.89 1015.21
1004.17 1005.16 1005.93 1006.42 1006.94 1007.57 1008.06 1008.80 1009.58 1010.02 1010.36 1010.72 1011.00 1011.15 1011.46 1011.76 1012.08 1012.33 1012.61 1012.81 1013.01 1013.17 1013.29 1013.41 1013.53 1013.63 1013.68 1013.71 1013.69 1013.80 1013.89 1013.94 1014.02 1014.10 1013.94 1014.08 1013.78 1013.87 1013.94 1014.28 1014.56 1014.85 1015.11
1003.74 1004.34 1005.04 1005.86 1006.28 1006.89 1007.55 1008.02 1008.70 1009.39 1009.88 1010.27 1010.59 1010.74 1010.96 1011.28 1011.53 1011.82 1012.03 1012.39 1012.64 1012.76 1012.93 1013.08 1013.22 1013.28 1013.28 1013.35 1013.39 1013.50 1013.58 1013.69 1013.82 1013.84 1013.70 1013.86 1013.70 1013.54 1013.75 1014.08 1014.47 1014.68 1014.94
1003.53 1004.01 1004.87 1005.46 1005.87 1006.20 1006.70 1007.11 1007.60 1008.46 1009.25 1009.85 1010.13 1010.28 1010.56 1010.93 1011.10 1011.29 1011.45 1011.87 1012.07 1012.20 1012.48 1012.67 1012.85 1012.92 1012.95 1013.00 1013.06 1013.21 1013.33 1013.49 1013.59 1013.58 1013.49 1013.29 1013.40 1013.40 1013.61 1013.85 1014.14 1014.44 1014.74
1002.48 1003.63 1004.11 1004.90 1005.24 1005.75 1006.09 1006.47 1007.01 1007.42 1008.34 1009.01 1009.50 1009.71 1010.06 1010.48 1010.66 1010.67 1010.79 1011.19 1011.40 1011.55 1011.97 1012.34 1012.29 1012.52 1012.67 1012.76 1012.81 1012.86 1012.97 1013.02 1013.23 1013.28 1013.13 1012.97 1012.90 1013.10 1013.47 1013.65 1013.93 1014.23 1014.50
1002.06 1002.86 1003.57 1003.90 1004.42 1004.82 1005.24 1005.99 1006.66 1006.87 1007.51 1008.29 1008.79 1009.14 1009.54 1009.93 1010.16 1010.30 1010.57 1010.74 1011.14 1011.31 1011.70 1011.91 1012.03 1012.28 1012.37 1012.45 1012.49 1012.34 1012.22 1012.57 1012.73 1012.79 1012.70 1012.49 1012.37 1012.76 1013.14 1013.55 1013.78 1014.06 1014.19
1001.63 1001.57 1002.28 1003.17 1004.02 1004.53 1004.63 1005.18 1005.67 1006.24 1006.73 1007.39 1008.06 1008.60 1009.12 1009.56 1009.84 1010.20 1010.38 1010.55 1010.90 1011.08 1011.45 1011.70 1011.77 1011.95 1012.15 1011.98 1011.93 1011.83 1011.77 1012.15 1012.30 1012.24 1012.28 1012.01 1012.01 1012.41 1012.96 1013.27 1013.59 1013.85 1013.99
1001.25 1001.11 1001.52 1002.24 1002.94 1003.40 1003.85 1004.38 1004.84 1005.38 1005.96 1006.58 1007.34 1007.92 1008.45 1009.04 1009.42 1009.75 1009.88 1010.04 1010.42 1010.62 1010.96 1011.50 1011.61 1011.64 1011.81 1011.75 1011.63 1011.44 1011.62 1011.57 1011.84 1011.84 1011.77 1011.76 1012.02 1012.30 1012.73 1013.01 1013.25 1013.45 1013.69
1000.26 1000.55 1000.87 1001.27 1001.91 1002.70 1003.15 1003.59 1003.94 1004.64 1005.30 1005.95 1006.59 1007.20 1007.83 1008.45 1009.09 1009.48 1009.79 1010.01 1010.18 1010.26 1010.52 1010.90 1011.25 1011.39 1011.55 1011.61 1011.50 1011.43 1011.27 1011.17 1011.28 1011.42 1011.61 1011.61 1011.85 1012.23 1012.51 1012.75 1012.87 1013.06 1013.28
999.47 999.64 1000.05 1000.55 1001.20 1002.05 1002.64 1003.03 1003.50 1003.98 1004.59 1005.30 1006.06 1006.56 1007.18 1007.86 1008.63 1009.12 1009.53 1009.80 1010.00 1009.99 1010.18 1010.47 1010.88 1011.04 1011.27 1011.38 1011.35 1011.32 1011.08 1010.94 1011.12 1011.17 1011.53 1011.69 1011.82 1011.98 1012.24 1012.48 1012.53 1012.77 1012.96
998.88 999.09 999.43 999.64 1000.52 1001.24 1001.93 1002.59 1003.16 1003.66 1004.14 1004.79 1005.56 1006.23 1006.76 1007.42 1007.99 1008.70 1009.13 1009.45 1009.64 1009.90 1010.16 1010.53 1010.68 1010.91 1011.09 1011.20 1011.31 1011.24 1011.05 1010.84 1010.89 1010.74 1011.10 1011.39 1011.53 1011.72 1012.00 1012.12 1012.31 1012.59 1012.78
997.97 998.23 998.83 999.29 999.77 1000.71 1001.50 1002.28 1002.79 1003.31 1003.82 1004.43 1005.25 1005.99 1006.56 1007.08 1007.61 1008.29 1008.73 1009.13 1009.31 1009.81 1010.04 1010.27 1010.43 1010.62 1010.85 1010.92 1011.07 1011.10 1010.89 1010.71 1010.65 1010.63 1010.81 1010.78 1011.12 1011.33 1011.71 1011.82 1012.03 1012.31 1012.52
997.65 997.85 998.15 998.67 999.25 1000.23 1001.09 1002.00 1002.70 1003.22 1003.77 1004.27 1004.98 1005.77 1006.10 1006.69 1007.19 1007.88 1008.43 1008.95 1009.27 1009.58 1009.73 1009.94 1010.17 1010.29 1010.45 1010.57 1010.75 1010.85 1010.69 1010.52 1010.49 1010.49 1010.62 1010.52 1010.59 1010.97 1011.13 1011.38 1011.78 1012.04 1012.24
997.02 997.46 997.91 998.59 999.39 1000.17 1001.07 1001.96 1002.80 1003.49 1004.03 1004.50 1005.11 1005.62 1006.01 1006.36 1007.00 1007.80 1008.27 1008.72 1008.99 1009.23 1009.42 1009.68 1009.95 1010.21 1010.26 1010.24 1010.83 1010.86 1010.72 1010.52 1010.48 1010.30 1010.46 1010.48 1010.53 1010.51 1011.00 1011.14 1011.38 1011.56 1011.78
996.96 997.27 997.82 998.46 998.99 999.76 1000.50 1001.38 1002.20 1003.24 1003.91 1004.29 1004.93 1005.52 1005.93 1006.45 1006.90 1007.40 1007.95 1008.39 1008.72 1009.05 1009.22 1009.40 1009.63 1009.90 1009.96 1010.08 1010.60 1010.80 1011.01 1010.92 1010.54 1010.37 1010.41 1010.47 1010.40 1010.37 1010.66 1010.76 1011.02 1011.24 1011.58
996.89 997.30 997.65 998.40 999.05 999.76 1000.52 1001.48 1002.45 1003.32 1003.97 1004.64 1005.20 1005.52 1005.79 1006.20 1006.80 1007.43 1007.91 1008.22 1008.51 1008.75 1009.02 1009.10 1009.20 1009.50 1009.86 1009.98 1010.05 1010.44 1010.86 1010.87 1010.81 1010.28 1010.32 1010.31 1010.44 1010.43 1010.39 1010.61 1010.66 1011.04 1011.31
996.95 997.29 997.62 998.66 999.31 1000.00 1000.60 1001.57 1002.43 1003.51 1004.35 1004.71 1005.10 1005.45 1005.90 1006.38 1006.91 1007.32 1007.75 1008.07 1008.31 1008.52 1008.66 1008.76 1008.93 1009.24 1009.62 1009.88 1010.08 1009.93 1010.04 1010.22 1010.56 1010.57 1010.28 1010.21 1010.20 1010.41 1010.39 1010.57 1010.92 1010.73 1010.91
997.09 997.77 998.44 999.19 999.84 1000.34 1000.91 1001.66 1002.51 1003.44 1003.94 1004.65 1005.26 1005.80 1006.20 1006.59 1006.88 1007.28 1007.63 1007.88 1008.04 1008.17 1008.31 1008.50 1008.74 1008.91 1009.08 1009.40 1009.60 1009.80 1010.03 1010.15 1010.23 1010.80 1010.70 1010.46 1010.35 1010.27 1010.24 1010.41 1010.86 1010.98 1010.80
997.47 998.23 999.09 999.71 1000.35 1000.78 1001.28 1001.97 1002.64 1003.41 1004.14 1004.96 1005.49 1006.11 1006.63 1006.90 1007.10 1007.28 1007.50 1007.63 1007.84 1007.98 1008.14 1008.29 1008.34 1008.48 1008.64 1008.80 1009.09 1009.35 1009.64 1009.94 1010.12 1010.28 1010.49 1010.48 1010.56 1010.55 1010.54 1010.63 1010.70 1010.80 1010.94
Wind_Speed
7 15 21 20 19 19 19 19 18 17 16 15 14 13 12 11 10 9 8 7 6 5 4 3 3 3 2 2 2 1 0 2 3 6 6 7 6 1 3 7 11 11 12
18 16 21 20 20 19 19 18 17 16 16 15 14 14 13 12 10 9 8 7 5 4 3 1 0 1 2 2 2 1 1 1 2 4 8 8 10 6 5 5 6 10 12
18 16 17 21 20 20 19 18 18 16 16 15 14 14 13 12 11 10 8 7 5 4 4 2 2 3 3 3 3 3 3 3 3 4 6 5 5 11 8 7 7 13 12
17 14 14 20 19 19 19 18 18 17 16 16 15 14 13 11 10 9 7 6 5 5 5 5 5 5 6 5 5 5 4 4 5 5 4 6 7 11 11 10 10 12 12
13 10 9 16 17 17 19 18 18 17 16 16 15 14 13 12 10 8 7 6 6 7 7 7 7 7 7 8 8 6 5 5 6 6 6 6 4 13 12 9 10 13 13
16 15 16 16 16 17 17 18 18 17 16 15 15 14 13 12 11 10 9 8 8 8 8 9 10 9 8 7 7 8 5 6 7 6 6 6 5 8 10 9 9 10 13
16 17 20 23 20 18 17 18 17 17 16 16 16 16 14 12 10 10 9 9 9 9 10 10 11 9 8 9 8 8 7 7 5 5 6 5 6 11 12 10 9 9 12
19 18 18 26 23 22 20 18 18 17 17 17 16 16 14 12 11 9 9 9 9 10 9 8 8 7 6 8 10 9 9 9 7 5 7 3 5 10 13 11 10 9 12
18 17 16 19 23 24 23 21 19 18 18 18 17 16 14 13 12 11 10 9 9 9 9 9 9 10 8 8 9 10 10 11 6 4 6 2 9 10 11 10 9 8 9
16 17 17 16 18 18 17 22 21 19 18 17 17 16 15 14 13 12 12 10 11 11 11 10 10 10 10 10 10 10 12 14 6 5 6 3 11 11 13 12 10 8 8
15 16 15 16 17 17 16 18 23 22 19 18 17 16 13 6 7 10 10 14 14 14 13 13 12 11 11 12 12 13 14 4 5 4 5 11 14 14 14 13 12 9 7
2 17 16 16 17 16 13 15 15 14 12 11 11 11 7 7 6 7 9 17 15 14 14 14 13 11 10 4 4 13 6 6 5 5 5 13 14 15 15 13 12 11 9
6 11 17 17 16 17 14 10 8 8 8 8 12 10 8 7 5 4 3 5 4 11 5 7 6 4 6 5 5 6 9 6 5 5 8 14 18 16 14 12 12 12 10
9 6 20 16 14 15 10 11 11 9 10 9 9 11 8 5 5 5 4 5 5 4 6 5 4 5 7 7 8 6 8 6 4 5 6 16 11 13 14 13 12 12 10
8 10 16 19 18 16 13 11 11 11 10 10 9 10 8 7 5 4 4 3 4 5 5 4 5 6 8 6 5 4 6 6 6 2 4 13 12 13 15 15 14 14 14
9 10 11 18 19 16 14 14 11 10 10 10 9 10 9 6 5 5 4 4 4 5 4 4 4 4 3 3 5 5 5 4 3 4 3 6 13 12 14 16 16 15 15
8 8 11 15 16 16 16 11 10 9 10 10 7 11 11 8 7 5 4 3 3 3 3 2 3 2 3 3 5 5 5 4 4 4 4 4 6 12 13 13 14 15 15
8 9 9 12 15 15 13 7 8 8 9 8 7 8 11 8 8 5 4 3 4 3 3 3 3 3 4 4 3 4 4 4 5 5 5 5 5 5 10 14 14 15 16
11 10 9 10 15 14 9 7 6 8 7 7 6 7 10 10 8 6 5 4 4 4 3 3 4 4 3 4 4 4 5 4 5 4 6 6 7 5 6 13 15 16 15
7 9 10 9 13 12 8 6 4 4 5 5 5 6 10 8 8 6 4 4 5 3 4 3 5 4 4 4 4 3 4 4 4 4 5 4 5 5 6 6 7 9 16
7 7 9 10 10 12 9 8 5 5 4 4 5 7 8 6 6 6 5 5 5 4 4 3 3 5 3 3 2 2 3 3 3 4 3 4 5 5 6 6 5 5 6
7 8 9 10 15 11 10 6 5 5 3 4 4 5 8 8 7 5 5 5 4 2 4 3 4 3 3 4 4 2 2 3 2 4 3 4 6 4 4 6 6 6 4
8 9 10 11 12 9 10 7 5 5 4 3 2 3 5 7 6 6 5 4 3 3 3 4 4 5 3 3 5 4 2 3 1 2 5 4 5 3 5 4 6 6 5
8 9 10 10 11 9 11 8 10 5 5 3 3 3 4 7 6 7 5 5 4 3 3 3 3 3 3 4 1 4 2 4 3 1 2 3 4 4 5 2 2 6 9
11 9 8 10 9 9 9 8 7 7 4 4 5 8 7 5 6 4 5 4 4 3 3 4 3 4 3 3 3 2 3 1 1 2 2 1 1 3 4 4 4 3 4
11 10 10 10 7 8 9 9 9 9 8 8 5 5 4 3 3 3 4 4 4 3 3 3 4 5 5 5 4 3 3 4 3 3 2 2 3 2 3 3 1 4 4
Wind_Direction
154 158 157 154 148 146 140 144 141 140 137 133 134 130 129 127 123 119 116 111 109 104 88 92 115 118 118 107 106 114 60 328 333 331 340 333 329 296 143 135 139 125 127
144 162 160 155 152 148 146 148 144 147 142 141 143 142 141 139 137 135 133 133 136 135 130 135 226 172 175 180 186 198 225 270 326 318 311 312 307 269 207 160 137 139 141
146 158 160 159 156 152 150 151 149 151 147 149 151 150 150 151 148 149 151 156 167 175 172 197 236 265 250 239 231 228 221 237 246 288 294 293 285 282 222 188 150 152 155
146 156 159 159 159 158 154 154 155 157 158 158 158 156 156 157 156 157 166 176 190 204 205 214 231 245 253 246 235 238 243 260 264 264 278 270 275 283 220 183 164 166 165
127 138 150 162 161 163 159 159 161 164 165 164 161 161 164 166 166 169 184 197 213 223 227 233 237 242 254 248 245 230 233 255 268 271 268 267 280 262 197 170 163 166 171
143 150 153 166 170 171 168 167 168 169 171 169 166 166 173 176 178 181 199 217 228 236 243 249 247 245 252 265 257 248 239 247 260 266 266 276 273 108 111 138 160 171 170
157 162 160 168 174 179 178 174 175 174 176 175 174 173 180 182 184 188 203 223 236 241 249 257 266 271 269 263 236 221 227 238 253 262 271 297 217 147 137 141 139 168 174
160 167 168 169 177 177 180 181 180 180 181 183 182 179 182 183 188 192 209 226 239 250 256 262 267 265 257 257 233 225 215 229 247 257 264 258 137 157 144 141 142 152 178
164 161 169 176 177 179 181 180 183 185 187 188 187 184 185 185 190 197 214 227 228 226 239 245 247 253 253 249 233 219 214 224 231 257 272 222 169 146 140 141 148 167 181
170 165 172 174 177 178 182 180 181 188 192 190 191 190 188 189 192 202 209 203 214 225 233 238 241 242 243 242 233 223 217 227 232 243 263 211 193 165 163 159 159 163 189
163 169 169 173 180 182 183 184 180 186 191 192 194 194 190 184 198 213 207 200 214 215 219 227 238 242 239 237 238 233 233 219 221 231 249 251 211 186 180 166 160 160 186
266 177 173 175 183 179 187 183 183 180 184 187 194 190 181 190 200 209 192 203 206 200 209 225 230 234 239 211 230 236 231 216 214 231 243 241 237 196 186 167 164 164 172
261 169 178 181 183 181 183 176 183 181 175 185 193 187 186 192 203 196 176 181 194 196 200 216 230 225 214 215 222 221 218 211 221 231 251 260 229 194 194 184 177 176 168
255 244 179 179 178 188 180 178 175 179 181 182 192 188 180 189 187 194 187 188 189 183 197 209 204 203 224 234 227 214 186 203 224 218 226 239 177 179 194 189 189 190 181
243 234 171 175 183 185 185 177 175 183 180 174 182 190 183 184 178 194 215 194 184 172 182 204 212 209 209 232 251 234 191 205 211 209 214 185 173 177 183 194 200 199 196
228 224 162 178 184 180 186 179 179 176 169 173 180 186 179 168 171 186 203 199 193 171 179 188 178 183 205 230 241 261 258 233 222 169 186 180 173 180 193 205 206 206 204
203 200 169 172 177 181 190 175 175 170 167 175 173 176 169 161 171 174 182 177 198 170 177 200 218 193 208 258 259 255 254 217 207 206 189 173 186 191 201 212 211 213 211
187 189 176 177 177 182 184 165 163 162 167 168 154 163 164 159 165 178 187 216 188 172 175 202 222 220 217 220 241 262 255 236 209 209 178 179 184 193 209 210 210 218 216
196 196 184 171 170 177 156 151 143 149 142 145 141 144 160 169 167 169 190 212 181 168 185 204 221 197 209 224 233 231 261 223 215 199 215 199 190 191 199 212 207 217 221
211 200 183 171 167 166 149 134 120 125 135 132 146 158 160 162 171 179 180 186 154 165 211 218 214 215 197 209 238 269 248 223 210 205 213 220 217 200 194 177 206 216 212
228 205 188 144 155 146 151 153 150 142 136 126 140 151 153 158 159 160 170 155 169 190 203 218 196 221 261 208 117 269 288 261 253 222 210 224 239 226 202 194 192 196 206
226 196 158 152 151 155 160 147 132 130 137 136 146 145 150 152 161 155 159 162 174 179 234 239 204 200 215 169 162 148 211 319 296 226 222 232 240 242 227 194 190 180 174
155 149 139 138 140 129 132 116 101 90 77 81 109 141 155 143 118 129 151 151 170 189 226 231 203 197 217 224 186 145 132 234 214 248 230 221 207 216 231 210 200 172 195
138 116 106 116 122 120 133 124 138 138 142 162 137 130 123 105 118 123 143 157 186 186 194 196 202 199 160 201 220 230 237 157 186 352 302 229 197 197 228 258 137 166 204
118 112 109 112 117 122 131 128 128 115 134 116 118 109 113 107 113 140 157 165 167 178 201 193 205 197 189 170 175 152 223 334 295 159 235 252 21 209 214 226 169 171 178
108 106 114 115 107 114 119 119 121 127 126 122 118 116 128 134 146 142 171 176 179 180 208 213 200 207 205 198 191 202 164 163 198 171 195 205 173 296 51 356 265 172 141